YU4PTT-8 Weather Reports


time (UTC)temp
C
wind
direction
speed
KPH
gust
KPH
rain 1hr
cm
rain 24hr
cm
rain mn
cm
humidity
%
barometer
mb
20260507113052 15 202 1.6 1.6 0.00 0.00 0.20 61 1005.3
20260507110022 14 158 1.6 1.6 0.00 0.00 0.20 62 1004.9
20260507103022 13 90 0.0 0.0 0.00 0.00 0.20 67 1005.5
20260507095052 12 45 3.2 3.2 0.00 0.00 0.20 67 1005.2
20260507091052 11 158 0.0 0.0 0.00 0.00 0.20 64 1005.1
20260507084027 11 158 3.2 3.2 0.00 0.00 0.20 64 1005.0
20260507081024 10 112 4.8 4.8 0.00 0.00 0.20 65 1005.1
20260507022322 9 225 3.2 3.2 0.05 0.00 0.08 88 1004.3
20260507014322 11 158 1.6 1.6 0.00 0.00 0.00 75 1004.2
20260507010322 12 158 0.0 0.0 0.00 0.00 0.00 68 1003.8
20260507002352 12 158 0.0 0.0 0.00 0.00 0.00 70 1003.8
20260506235322 12 68 0.0 0.0 0.00 0.00 0.00 70 1003.9
20260506231322 12 68 1.6 1.6 0.00 0.00 0.00 68 1003.6
20260506223322 12 158 6.4 6.4 0.00 0.00 0.00 68 1003.8
20260506215322 13 90 4.8 4.8 0.00 0.00 0.00 67 1002.9
20260506211322 13 248 3.2 3.2 0.00 0.00 0.00 66 1003.0
20260506203322 14 90 1.6 1.6 0.00 0.00 0.00 62 1003.0
20260506195322 15 180 9.7 9.7 0.00 0.00 0.00 57 1003.1
20260506191321 15 158 0.0 0.0 0.00 0.00 0.00 54 1003.3
20260506183322 16 158 1.6 1.6 0.00 0.00 0.00 52 1003.0
20260506175352 16 90 0.0 0.0 0.00 0.00 0.00 52 1002.7
20260506171321 17 180 0.0 0.0 0.00 0.00 0.00 54 1002.6
20260506163322 18 158 0.0 0.0 0.00 0.00 0.00 52 1002.7
20260506155321 18 68 0.0 0.0 0.00 0.00 0.00 52 1002.8
20260506151351 18 45 0.0 0.0 0.00 0.00 0.00 53 1003.1
20260506144322 18 45 0.0 0.0 0.00 0.00 0.00 50 1003.2
20260506140351 19 68 0.0 0.0 0.00 0.00 0.00 54 1003.2
20260506132321 21 292 1.6 1.6 0.00 0.00 0.00 42 1003.5
20260506124321 21 315 0.0 0.0 0.00 0.00 0.00 43 1003.8
20260506120321 21 158 6.4 6.4 0.00 0.00 0.00 43 1004.0